Simultaneous Nadir Overpasses (SNOs) Predictions

Prediction of SNOs between METOP-A and NOAA-19 Satellite Orbit:

Table of predicted SNOs for the next 14.0 days since TLE Epoch: 7/7/2017
Index Date (METOP-A) Time (METOP-A) Lat,Lon (METOP-A) SZA (METOP-A ) Date (NOAA-19) Time (NOAA-19) Lat,Lon (NOAA-19) SZA (NOAA-19 ) Distance(km) Time Diff (sec)
1 07/11/2017 02:11:56 77.39, 151.85 55.25 07/11/2017 02:10:55 77.41, 151.85 55.28 3.15 61
2 07/11/2017 03:02:37 -77.40, -40.75 124.73 07/11/2017 03:01:50 -77.39, -40.75 124.75 1.94 47
3 07/11/2017 03:53:18 77.37, 126.42 55.24 07/11/2017 03:52:56 77.39, 126.46 55.26 2.91 22
4 07/11/2017 04:43:59 -77.38, -66.17 124.74 07/11/2017 04:43:51 -77.36, -66.14 124.76 2.42 8
5 07/11/2017 05:34:40 77.35, 101.00 55.23 07/11/2017 05:34:57 77.37, 101.06 55.25 2.92 17
6 07/11/2017 06:25:21 -77.36, -91.60 124.75 07/11/2017 06:25:52 -77.34, -91.54 124.77 3.04 31
7 07/11/2017 07:16:02 77.33, 75.57 55.22 07/11/2017 07:16:58 77.34, 75.67 55.24 3.17 56
8 07/11/2017 08:06:43 -77.35,-117.02 124.76 07/11/2017 08:07:54 -77.36,-117.13 124.75 3.00 71
9 07/21/2017 19:48:56 -77.87, 69.79 122.45 07/21/2017 19:47:52 -77.88, 65.56 122.50 98.81 64
10 07/21/2017 20:39:46 77.44,-124.91 57.09 07/21/2017 20:38:47 77.42,-124.85 57.07 2.49 59




NCC Satellite Simultaneous Nadir Overpasses (SNOs) Prediction Service
